[[{"header":{"parameterUnit":"m.s-1","parameterCategory":1,"la1":30.2991,"la2":30.254,"lo1":-89.0895,"lo2":-89.0444,"dy":0.0017,"dx":0.0017,"nx":28,"ny":28,"refTime":"2026-02-15T09:00:00:Z","depth":0,"parameterNumber":2,"parameterNumberName":"U-component_of_WINDS"},"data":[0,0,0,0,0,0,0,0,0,0,0,0,0,0,0,0,0,0,0,0,0,0,0,0,0,0,0,0,0,0,0,0,0,0,0,0,0,0,0,0,0,0,0,0,0,0,0,0,0,0,0,0,0,0,0,0,0,0,6.9527,6.9526,0,6.9513,6.9513,6.9513,6.9463,6.9462,6.946,6.9459,6.9444,6.9445,6.9445,0,0,0,0,0,0,0,0,0,0,0,0,0,6.951,6.951,6.9527,6.9526,6.9526,6.9513,6.9513,6.9513,6.9463,6.9462,6.946,6.9459,6.9444,6.9444,6.9445,0,0,0,0,0,0,0,0,0,0,0,0,0,6.9509,6.9511,6.9527,6.95,6.9497,6.9513,6.9513,6.9513,6.9463,6.9462,6.946,6.9458,6.9443,6.9444,6.9445,6.9485,0,0,6.9448,6.9449,0,0,0,0,0,0,0,0,6.9509,6.9509,6.9504,6.9502,6.9499,6.9488,6.9501,6.9503,6.9464,6.9476,6.9459,6.9457,6.946,6.9459,6.946,6.9485,6.9484,6.9448,6.9449,6.9449,6.945,0,0,0,0,0,0,0,6.9509,6.951,6.9521,6.9504,6.9501,6.9489,6.9487,6.9501,6.9478,6.9475,6.9471,6.947,6.9458,6.946,6.946,6.9484,6.9448,6.9449,6.945,6.945,6.9544,6.9545,0,0,0,0,0,0,6.9513,6.951,6.9522,6.9521,6.95,6.949,6.9488,6.9493,6.9477,6.9473,6.9472,6.9468,6.9459,6.9459,6.9459,6.9507,6.9449,6.945,6.9451,6.9542,6.9544,6.9546,0,0,0,0,0,0,6.9513,6.9514,6.9522,6.9514,6.9515,6.9493,6.9499,6.9494,6.9495,6.9475,6.9471,6.9478,6.9457,6.9458,6.948,6.9505,6.9451,6.9452,6.954,6.9542,6.9545,6.9602,0,0,0,0,0,0,6.9513,6.9515,6.9529,6.9515,6.9515,6.9543,6.95,6.9495,6.9497,6.9492,6.9479,6.9476,6.9456,6.9479,6.9481,6.9506,6.9452,6.9537,6.9541,6.9544,6.9597,6.9606,6.9614,0,0,0,0,0,6.9512,6.9544,6.953,6.9532,6.9533,6.9545,6.9545,6.9522,6.9499,6.9514,6.9502,6.9476,6.9503,6.9482,6.9484,6.9509,6.9535,6.954,6.9544,6.9594,6.9604,6.9613,0,0,0,0,0,0,6.956,6.9542,6.9526,6.9555,6.9552,6.9536,6.9554,6.9533,6.9536,6.9531,6.9503,6.95,6.9528,6.952,6.9497,6.9549,6.9515,6.952,6.9552,6.9562,6.957,6.9571,6.9453,0,0,0,0,0,6.9575,6.9586,6.9569,6.9596,6.9596,6.9576,6.958,6.9563,6.9559,6.9557,6.9546,6.9542,6.955,6.9556,6.9561,6.9597,6.9594,6.9615,6.9624,6.963,6.9635,6.9655,6.9665,6.956,6.956,6.956,0,0,6.9603,6.9595,6.9603,6.9606,6.9602,6.9615,6.9575,6.9589,6.9599,6.9559,6.958,6.9572,6.9567,6.9597,6.9609,6.9591,6.9664,6.9636,6.9641,6.9642,6.9661,6.9671,6.968,6.9563,6.9563,6.9562,0,0,6.9663,6.9657,6.968,6.9678,6.9673,6.966,6.9666,6.9654,6.9648,6.9669,6.9641,6.9652,6.9665,6.9663,6.9664,6.9728,6.9705,6.973,6.9772,6.9793,6.9801,6.9808,6.9832,6.9841,6.9735,6.9735,6.9735,0,6.9699,6.9718,6.9695,6.9712,6.9715,6.9682,6.9706,6.9704,6.9701,6.9704,6.9685,6.9704,6.9697,6.9727,6.9744,6.9745,6.9752,6.9731,6.9802,6.9809,6.9815,6.9838,6.9847,6.9738,6.9738,6.9738,6.9737,0,6.9764,6.9777,6.9797,6.9797,6.9802,6.9823,6.9804,6.9812,6.9796,6.9785,6.9809,6.98,6.9805,6.9811,6.9795,6.984,6.983,6.9807,6.9772,6.9829,6.985,6.9858,6.9743,6.9742,6.9741,6.974,0,0,6.985,6.984,6.9848,6.9849,6.9843,6.9853,6.9874,6.988,6.9888,6.9888,6.9905,6.9919,6.9899,6.99,6.9884,6.9902,6.9955,6.9876,6.9876,6.9892,7.0007,7.0025,7.0035,6.994,6.9942,6.9943,7.0008,0,6.9908,6.9942,6.9924,6.9961,6.9975,6.9946,6.9964,6.9962,6.9954,6.9965,6.9955,6.9966,6.9937,6.9938,6.9955,6.9945,6.9978,6.994,6.9956,6.9957,6.9959,7.0045,7.0063,7.0124,7.0016,7.0017,7.0018,0,6.9979,6.9985,7.0024,7.0019,7.0024,7.004,7.0046,7.0056,7.0055,7.0048,7.0052,7.0032,7.0052,7.0019,7.0048,7.0023,7.0029,7.0026,7.0028,7.0028,6.9991,7.0049,7.0143,7.0153,7.003,7.0029,7.0028,0,7.004,7.0057,7.0084,7.0085,7.0079,7.0092,7.009,7.0088,7.0094,7.0099,7.0103,7.011,7.0115,7.0121,7.0105,7.0082,7.0137,7.0101,7.0132,7.0132,7.0144,7.0143,7.0241,7.0148,7.0147,7.0147,7.0147,0,7.0107,7.0132,7.0112,7.0128,7.0156,7.0136,7.0165,7.0159,7.0158,7.0174,7.0148,7.0163,7.014,7.0153,7.014,7.0167,7.0169,7.0164,7.016,7.0167,7.0167,7.017,7.0165,7.015,7.0149,7.0149,7.0148,0,7.0179,7.0166,7.0194,7.0187,7.0186,7.0208,7.0202,7.0217,7.0208,7.0228,7.0232,7.0218,7.0232,7.0217,7.0229,7.0221,7.0257,7.0247,7.0258,7.0255,7.0287,7.0285,7.039,7.0403,7.0301,7.0302,7.0303,0,7.0222,7.0242,7.0238,7.0248,7.0248,7.0262,7.0269,7.0251,7.0259,7.0262,7.0277,7.029,7.0299,7.0323,7.0314,7.0325,7.0315,7.0351,7.0316,7.0322,7.0316,7.0315,7.0318,7.0358,7.0359,7.036,7.0361,0,7.0301,7.0295,7.0306,7.0317,7.0326,7.0333,7.0338,7.0347,7.0328,7.0339,7.0354,7.0362,7.0376,7.0389,7.0398,7.0396,7.0376,7.0373,7.038,7.0386,7.0392,7.039,7.0278,7.037,7.0369,7.0368,7.0368,7.0367,7.0361,7.0378,7.0379,7.0393,7.0396,7.0402,7.0417,7.0411,7.0424,7.0435,7.0424,7.0443,7.0444,7.0453,7.0454,7.0469,7.0454,7.0465,7.0467,7.047,7.0476,7.0391,7.0471,7.047,7.047,7.047,7.047,0,7.0439,7.0439,7.0453,7.0462,7.0474,7.0456,7.0461,7.0472,7.049,7.0493,7.0504,7.0522,7.0536,7.053,7.0542,7.0555,7.0547,7.0559,7.0558,7.0558,7.0488,7.0481,7.0566,7.0566,7.0566,7.0566,7.0566,7.0566,7.0481,7.0509,7.0504,7.0534,7.0534,7.0554,7.0558,7.0564,7.0567,7.059,7.0602,7.0598,7.0598,7.0611,7.0623,7.0621,7.0626,7.0643,7.0637,7.0572,7.0562,7.0553,7.0546,7.0644,7.0644,7.0705,7.0706,7.0706]},{"header":{"parameterUnit":"m.s-1","parameterCategory":1,"la1":30.2991,"la2":30.254,"lo1":-89.0895,"lo2":-89.0444,"dy":0.0017,"dx":0.0017,"nx":28,"ny":28,"refTime":"2026-02-15T09:00:00:Z","depth":0,"parameterNumber":3,"parameterNumberName":"V-component_of_WINDS"},"data":[0,0,0,0,0,0,0,0,0,0,0,0,0,0,0,0,0,0,0,0,0,0,0,0,0,0,0,0,0,0,0,0,0,0,0,0,0,0,0,0,0,0,0,0,0,0,0,0,0,0,0,0,0,0,0,0,0,0,0.4199,0.4201,0,0.4377,0.4379,0.4381,0.4391,0.4389,0.4387,0.4385,0.4572,0.4579,0.4586,0,0,0,0,0,0,0,0,0,0,0,0,0,0.3871,0.3877,0.4199,0.4201,0.4203,0.4376,0.4379,0.4381,0.4392,0.4389,0.4387,0.4384,0.457,0.4578,0.4586,0,0,0,0,0,0,0,0,0,0,0,0,0,0.4028,0.3879,0.4199,0.4229,0.4234,0.4376,0.4379,0.4382,0.4392,0.4389,0.4386,0.4383,0.4567,0.4577,0.4588,0.4713,0,0,0.4619,0.4624,0,0,0,0,0,0,0,0,0.4019,0.404,0.4223,0.4228,0.4233,0.4359,0.4332,0.4493,0.4393,0.4332,0.4385,0.4382,0.4504,0.4519,0.456,0.4721,0.4729,0.462,0.4626,0.4631,0.4634,0,0,0,0,0,0,0,0.4008,0.4032,0.4269,0.4225,0.4232,0.4235,0.4254,0.4363,0.4433,0.4337,0.4339,0.4359,0.4506,0.455,0.4564,0.4732,0.462,0.4629,0.4635,0.4639,0.5003,0.5006,0,0,0,0,0,0,0.3991,0.4023,0.4264,0.4275,0.4116,0.4244,0.4265,0.4322,0.4432,0.4446,0.4362,0.4359,0.4534,0.4552,0.4571,0.4722,0.4631,0.464,0.4646,0.4999,0.5003,0.5007,0,0,0,0,0,0,0.3984,0.4012,0.4257,0.4149,0.4181,0.4252,0.4316,0.4327,0.437,0.445,0.4463,0.4393,0.4532,0.4556,0.4676,0.4729,0.4645,0.4654,0.4995,0.5,0.5005,0.5028,0,0,0,0,0,0,0.3974,0.401,0.4057,0.415,0.4186,0.4359,0.432,0.4332,0.4387,0.4385,0.4483,0.4496,0.4531,0.4661,0.4686,0.4742,0.4662,0.4991,0.4997,0.5004,0.5023,0.5033,0.5042,0,0,0,0,0,0.3963,0.4058,0.406,0.4089,0.4247,0.4362,0.4382,0.4419,0.4391,0.444,0.4491,0.4493,0.4719,0.4673,0.4702,0.4761,0.4988,0.4996,0.5003,0.5018,0.5031,0.5042,0,0,0,0,0,0,0.3972,0.4071,0.4074,0.4202,0.4273,0.4363,0.4426,0.4432,0.4514,0.4509,0.4553,0.4575,0.4693,0.4739,0.4686,0.4887,0.485,0.4864,0.4852,0.4865,0.4874,0.486,0.4671,0,0,0,0,0,0.3989,0.4072,0.4155,0.426,0.4295,0.4354,0.4405,0.4427,0.4503,0.4534,0.4594,0.4669,0.4756,0.4813,0.4898,0.5029,0.505,0.5084,0.5094,0.5101,0.5113,0.5183,0.5199,0.5033,0.5033,0.5032,0,0,0.4025,0.4089,0.414,0.4263,0.4321,0.4406,0.438,0.4472,0.4536,0.4549,0.4664,0.4711,0.4797,0.4922,0.4981,0.4965,0.5163,0.5111,0.5117,0.5124,0.5193,0.5208,0.5222,0.5038,0.5037,0.5036,0,0,0.4134,0.4191,0.4284,0.4341,0.4428,0.4466,0.4488,0.4577,0.4607,0.4724,0.4734,0.4812,0.4962,0.5022,0.5072,0.5201,0.5205,0.5228,0.5278,0.5346,0.536,0.5371,0.5416,0.5431,0.5239,0.5239,0.5239,0,0.4168,0.4296,0.4332,0.4423,0.4476,0.4489,0.4583,0.4638,0.4748,0.4785,0.4765,0.4952,0.5012,0.515,0.518,0.5221,0.5248,0.5217,0.5355,0.5367,0.5378,0.5421,0.5438,0.5241,0.5241,0.5241,0.524,0,0.4333,0.4422,0.4487,0.459,0.4651,0.4744,0.4793,0.4851,0.4867,0.4907,0.5025,0.5096,0.5194,0.5229,0.5247,0.5369,0.5356,0.5345,0.5309,0.5396,0.5436,0.5453,0.5244,0.5243,0.5243,0.5242,0,0,0.4455,0.4574,0.4597,0.4643,0.4738,0.4808,0.49,0.4994,0.5042,0.5118,0.5196,0.5321,0.5311,0.5368,0.5392,0.5452,0.5547,0.5433,0.5436,0.5451,0.5684,0.5691,0.5709,0.555,0.5553,0.5556,0.5676,0,0.4573,0.4736,0.4769,0.4911,0.4992,0.5004,0.5085,0.5152,0.5191,0.5267,0.5312,0.5399,0.5379,0.5413,0.5473,0.5522,0.5594,0.5514,0.5623,0.5627,0.56,0.5731,0.574,0.585,0.5693,0.5695,0.5697,0,0.4733,0.4809,0.4958,0.5039,0.5075,0.5146,0.5234,0.5306,0.5382,0.5407,0.5469,0.5486,0.5582,0.5542,0.5675,0.562,0.5666,0.5697,0.5702,0.5714,0.5667,0.5744,0.5886,0.5902,0.5723,0.5721,0.5719,0,0.4804,0.4944,0.505,0.509,0.5188,0.5238,0.5281,0.5354,0.5408,0.5485,0.552,0.5608,0.5656,0.5724,0.5765,0.5732,0.5894,0.5857,0.5917,0.5916,0.595,0.5948,0.61,0.5982,0.5982,0.5981,0.5981,0,0.4932,0.5022,0.5083,0.5149,0.525,0.5287,0.5386,0.543,0.5494,0.5568,0.5585,0.5655,0.5704,0.5781,0.5813,0.5917,0.594,0.5962,0.5969,0.596,0.5957,0.5991,0.5983,0.5986,0.5985,0.5984,0.5983,0,0.5028,0.5073,0.5189,0.5272,0.5295,0.5365,0.5436,0.55,0.5539,0.5633,0.5657,0.5719,0.5809,0.5856,0.597,0.5992,0.6109,0.6112,0.6082,0.6085,0.6141,0.6134,0.632,0.6345,0.6211,0.6213,0.6214,0,0.5106,0.5175,0.5264,0.5314,0.5358,0.5439,0.5492,0.5532,0.5588,0.5678,0.5731,0.5821,0.5896,0.604,0.6096,0.6183,0.6188,0.6246,0.6201,0.6188,0.6187,0.6181,0.6188,0.6254,0.6256,0.6257,0.6257,0,0.5239,0.5257,0.5333,0.5417,0.548,0.5549,0.5616,0.5656,0.5707,0.5768,0.586,0.5917,0.6032,0.6122,0.6212,0.6258,0.6266,0.6271,0.6289,0.628,0.6259,0.6269,0.6103,0.6267,0.6266,0.6265,0.6265,0.6264,0.5328,0.5389,0.546,0.5544,0.5598,0.566,0.5723,0.5769,0.5846,0.594,0.5959,0.6056,0.6129,0.625,0.6298,0.6375,0.6362,0.6389,0.6396,0.6401,0.6403,0.6247,0.6392,0.6391,0.6391,0.6391,0.6391,0,0.546,0.5506,0.5583,0.5675,0.5741,0.5741,0.5815,0.587,0.5954,0.6021,0.6093,0.6197,0.6283,0.6345,0.6433,0.6482,0.6488,0.6503,0.65,0.651,0.641,0.6384,0.6497,0.6497,0.6497,0.6497,0.6497,0.6497,0.5537,0.5639,0.5665,0.5794,0.584,0.5933,0.5975,0.6032,0.6085,0.62,0.6271,0.6309,0.6374,0.6466,0.6545,0.6561,0.6592,0.6607,0.6623,0.6528,0.6517,0.6506,0.6483,0.6614,0.6614,0.6717,0.6717,0.6718]}]]